,,Stat5,,Stat1,,Stat2,,Stat3,,Stat4,,Wind1,,Wind1,
time,status,PA1M_AVG,status,PR1M_SUM,status,RH1M_AVG,status,SR1M_AVG,status,TA1M_AVG,status,W1dAve1m,status,W1sAve1m,
2001-10-08, 00:00:00,VALID,919.844,VALID,0,VALID,89.2031,VALID,-0.0169808,VALID,18.5393,VALID,39,VALID,0,
2001-10-08, 00:01:00,VALID,919.844,VALID,0,VALID,89.4192,VALID,-0.0169808,VALID,18.526,VALID,38,VALID,0,
2001-10-08, 00:02:01,VALID,919.819,VALID,0,VALID,89.5642,VALID,0,VALID,18.4817,VALID,25,VALID,0,
2001-10-08, 00:03:00,VALID,919.8,VALID,0,VALID,90.0932,VALID,0,VALID,18.4139,VALID,18,VALID,0,
2001-10-08, 00:04:00,VALID,919.775,VALID,0,VALID,89.7244,VALID,0,VALID,18.3361,VALID,3,VALID,0.574908,
2001-10-08, 00:05:00,VALID,919.759,VALID,0,VALID,89.6036,VALID,0,VALID,18.2902,VALID,333,VALID,0.415752,
2001-10-08, 00:06:00,VALID,919.744,VALID,0,VALID,90.0461,VALID,-0.0169808,VALID,18.2976,VALID,337,VALID,0.042352,
2001-10-08, 00:07:01,VALID,919.723,VALID,0,VALID,89.404,VALID,-0.0339617,VALID,18.2718,VALID,299,VALID,0.417863,
2001-10-08, 00:08:00,VALID,919.704,VALID,0,VALID,87.7789,VALID,0.0169808,VALID,18.2522,VALID,288,VALID,0.287007,
2001-10-08, 00:09:01,VALID,919.687,VALID,0,VALID,89.5845,VALID,0,VALID,18.2907,VALID,291,VALID,0,
2001-10-08, 00:10:00,VALID,919.661,VALID,0,VALID,89.8071,VALID,0.0169808,VALID,18.2909,VALID,346,VALID,0.0900493,
2001-10-08, 00:11:00,VALID,919.658,VALID,0,VALID,88.7936,VALID,-0.0169808,VALID,18.2385,VALID,346,VALID,0,
2001-10-08, 00:12:00,VALID,919.651,VALID,0,VALID,89.2717,VALID,0.0169808,VALID,18.2485,VALID,341,VALID,0.0265214,
2001-10-08, 00:13:00,VALID,919.655,VALID,0,VALID,89.83,VALID,0,VALID,18.2741,VALID,344,VALID,0.0783253,
2001-10-08, 00:14:01,VALID,919.646,VALID,0,VALID,91.0482,VALID,0.0339617,VALID,18.29,VALID,350,VALID,0.0857422,
2001-10-08, 00:15:00,VALID,919.632,VALID,0,VALID,91.1893,VALID,0.0169808,VALID,18.3001,VALID,6,VALID,0.421875,
2001-10-08, 00:16:00,VALID,919.633,VALID,0,VALID,90.7684,VALID,0.0509425,VALID,18.2515,VALID,6,VALID,0.361719,
2001-10-08, 00:17:01,VALID,919.641,VALID,0,VALID,90.8269,VALID,0.0169808,VALID,18.2125,VALID,13,VALID,0.377204,
2001-10-08, 00:18:01,VALID,919.639,VALID,0,VALID,90.5293,VALID,0.0339617,VALID,18.1866,VALID,24,VALID,0.926604,
2001-10-08, 00:19:00,VALID,919.649,VALID,0,VALID,90.9045,VALID,0,VALID,18.194,VALID,27,VALID,0.883413,
2001-10-08, 00:20:00,VALID,919.647,VALID,0,VALID,90.5039,VALID,0.0169808,VALID,18.1876,VALID,37,VALID,0.847656,
2001-10-08, 00:21:01,VALID,919.632,VALID,0,VALID,90.654,VALID,0,VALID,18.2003,VALID,40,VALID,0.770232,
2001-10-08, 00:22:00,VALID,919.634,VALID,0,VALID,90.2776,VALID,0,VALID,18.2065,VALID,34,VALID,0.783594,
2001-10-08, 00:23:00,VALID,919.664,VALID,0,VALID,89.9571,VALID,0.0339617,VALID,18.2162,VALID,35,VALID,0.693834,
2001-10-08, 00:24:00,VALID,919.67,VALID,0,VALID,89.6379,VALID,0,VALID,18.2482,VALID,34,VALID,0.648828,
2001-10-08, 00:25:00,VALID,919.667,VALID,0,VALID,89.2501,VALID,0.0169808,VALID,18.2969,VALID,41,VALID,0.801282,
2001-10-08, 00:26:01,VALID,919.649,VALID,0,VALID,89.0924,VALID,0.0339617,VALID,18.3617,VALID,48,VALID,0.737253,
2001-10-08, 00:27:01,VALID,919.651,VALID,0,VALID,89.0212,VALID,0,VALID,18.4002,VALID,45,VALID,0.332532,
2001-10-08, 00:28:00,VALID,919.644,VALID,0,VALID,88.8216,VALID,0.0509425,VALID,18.4233,VALID,48,VALID,0.0435855,
2001-10-08, 00:29:01,VALID,919.648,VALID,0,VALID,88.2455,VALID,0.0169808,VALID,18.4263,VALID,49,VALID,0.388822,
2001-10-08, 00:30:01,VALID,919.645,VALID,0,VALID,87.8793,VALID,0.0169808,VALID,18.4517,VALID,54,VALID,0.262109,
2001-10-08, 00:31:00,VALID,919.637,VALID,0,VALID,87.8526,VALID,0,VALID,18.4708,VALID,54,VALID,0,
2001-10-08, 00:32:00,VALID,919.64,VALID,0,VALID,87.784,VALID,0,VALID,18.5004,VALID,54,VALID,0,
2001-10-08, 00:33:01,VALID,919.595,VALID,0,VALID,88.6105,VALID,-0.0169808,VALID,18.5133,VALID,126,VALID,0.316707,
2001-10-08, 00:34:01,VALID,919.575,VALID,0,VALID,89.6189,VALID,0,VALID,18.5195,VALID,135,VALID,0.259868,
2001-10-08, 00:35:01,VALID,919.55,VALID,0,VALID,90.4912,VALID,0,VALID,18.51,VALID,145,VALID,0.405048,
2001-10-08, 00:36:00,VALID,919.549,VALID,0,VALID,91.174,VALID,0.0169808,VALID,18.4681,VALID,153,VALID,0.591283,
2001-10-08, 00:37:01,VALID,919.554,VALID,0,VALID,91.7158,VALID,0,VALID,18.4194,VALID,127,VALID,0.24379,
2001-10-08, 00:38:01,VALID,919.546,VALID,0,VALID,92.1456,VALID,0,VALID,18.3543,VALID,122,VALID,0,
2001-10-08, 00:39:00,VALID,919.541,VALID,0,VALID,92.3465,VALID,0,VALID,18.319,VALID,122,VALID,0,
2001-10-08, 00:40:01,VALID,919.53,VALID,0,VALID,92.26,VALID,0.0169808,VALID,18.2909,VALID,122,VALID,0,
2001-10-08, 00:41:01,VALID,919.522,VALID,0,VALID,91.9332,VALID,0.0339617,VALID,18.2582,VALID,122,VALID,0,
2001-10-08, 00:42:01,VALID,919.512,VALID,0,VALID,91.586,VALID,0.0339617,VALID,18.2321,VALID,122,VALID,0,
2001-10-08, 00:43:01,VALID,919.498,VALID,0,VALID,91.0024,VALID,0.0169808,VALID,18.2224,VALID,122,VALID,0.0919471,
2001-10-08, 00:44:01,VALID,919.506,VALID,0,VALID,90.6069,VALID,0,VALID,18.2418,VALID,122,VALID,0.0742188,
2001-10-08, 00:45:01,VALID,919.505,VALID,0,VALID,90.2064,VALID,0.0169808,VALID,18.2681,VALID,122,VALID,0,
2001-10-08, 00:46:01,VALID,919.511,VALID,0,VALID,89.6583,VALID,0,VALID,18.2902,VALID,122,VALID,0,
2001-10-08, 00:47:01,VALID,919.514,VALID,0,VALID,89.5426,VALID,0,VALID,18.3387,VALID,122,VALID,0,
2001-10-08, 00:48:01,VALID,919.498,VALID,0,VALID,89.713,VALID,0.0169808,VALID,18.3809,VALID,122,VALID,0,
2001-10-08, 00:49:01,VALID,919.494,VALID,0,VALID,89.6837,VALID,0.0169808,VALID,18.4196,VALID,122,VALID,0,
2001-10-08, 00:50:01,VALID,919.462,VALID,0,VALID,89.156,VALID,0.0339617,VALID,18.4127,VALID,122,VALID,0,
2001-10-08, 00:51:01,VALID,919.443,VALID,0,VALID,88.4096,VALID,0.0169808,VALID,18.439,VALID,122,VALID,0,
2001-10-08, 00:52:01,VALID,919.422,VALID,0,VALID,89.0288,VALID,0.0169808,VALID,18.4907,VALID,122,VALID,0,
2001-10-08, 00:53:01,VALID,919.404,VALID,0,VALID,88.9322,VALID,0.0169808,VALID,18.513,VALID,122,VALID,0,
2001-10-08, 00:54:01,VALID,919.403,VALID,0,VALID,89.4612,VALID,0.0169808,VALID,18.5359,VALID,122,VALID,0,
2001-10-08, 00:55:01,VALID,919.396,VALID,0,VALID,89.2895,VALID,0,VALID,18.5292,VALID,122,VALID,0,
2001-10-08, 00:56:01,VALID,919.379,VALID,0,VALID,88.7923,VALID,0.0339617,VALID,18.552,VALID,122,VALID,0,
2001-10-08, 00:57:01,VALID,919.366,VALID,0,VALID,88.2799,VALID,0.0339617,VALID,18.5776,VALID,122,VALID,0,
2001-10-08, 00:58:01,VALID,919.376,VALID,0,VALID,88.5952,VALID,0,VALID,18.636,VALID,131,VALID,0.183183,
2001-10-08, 00:59:00,VALID,919.377,VALID,0,VALID,88.6601,VALID,0,VALID,18.6708,VALID,143,VALID,0.414864,
2001-10-08, 01:00:00,VALID,919.371,VALID,0,VALID,88.6181,VALID,0.0169808,VALID,18.6812,VALID,143,VALID,0.403988,
2001-10-08, 01:01:00,VALID,919.354,VALID,0,VALID,88.8623,VALID,0.0169808,VALID,18.6616,VALID,143,VALID,0.241186,
2001-10-08, 01:02:00,VALID,919.335,VALID,0,VALID,89.2794,VALID,0,VALID,18.6556,VALID,143,VALID,0.0496094,
2001-10-08, 01:03:00,VALID,919.317,VALID,0,VALID,89.4879,VALID,-0.0169808,VALID,18.6427,VALID,143,VALID,0,
2001-10-08, 01:04:00,VALID,919.293,VALID,0,VALID,90.5217,VALID,-0.0169808,VALID,18.6134,VALID,143,VALID,0,
2001-10-08, 01:05:00,VALID,919.276,VALID,0,VALID,91.0456,VALID,0,VALID,18.5744,VALID,143,VALID,0,
2001-10-08, 01:06:00,VALID,919.262,VALID,0,VALID,91.614,VALID,-0.0339617,VALID,18.5299,VALID,143,VALID,0,
2001-10-08, 01:07:00,VALID,919.247,VALID,0,VALID,92.1951,VALID,0,VALID,18.484,VALID,143,VALID,0,
2001-10-08, 01:08:00,VALID,919.218,VALID,0,VALID,92.6898,VALID,-0.0339617,VALID,18.4487,VALID,143,VALID,0,
2001-10-08, 01:09:00,VALID,919.192,VALID,0,VALID,92.8945,VALID,0,VALID,18.4132,VALID,92,VALID,0.167668,
2001-10-08, 01:10:00,VALID,919.164,VALID,0,VALID,92.9428,VALID,0.0169808,VALID,18.3804,VALID,359,VALID,0.0365234,
2001-10-08, 01:11:00,VALID,919.151,VALID,0,VALID,92.9645,VALID,-0.0339617,VALID,18.358,VALID,359,VALID,0,
2001-10-08, 01:12:00,VALID,919.117,VALID,0,VALID,92.6199,VALID,0,VALID,18.3163,VALID,359,VALID,0,
2001-10-08, 01:13:00,VALID,919.09,VALID,0,VALID,92.3694,VALID,-0.0339617,VALID,18.2838,VALID,359,VALID,0.0905449,
2001-10-08, 01:14:00,VALID,919.082,VALID,0,VALID,92.8945,VALID,0,VALID,18.2902,VALID,359,VALID,0.100329,
2001-10-08, 01:15:00,VALID,919.072,VALID,0,VALID,93.1717,VALID,0,VALID,18.2907,VALID,359,VALID,0,
2001-10-08, 01:16:00,VALID,919.057,VALID,0,VALID,92.8615,VALID,-0.0169808,VALID,18.2577,VALID,359,VALID,0,
2001-10-08, 01:17:00,VALID,919.057,VALID,0,VALID,92.1545,VALID,0,VALID,18.2353,VALID,359,VALID,0,
2001-10-08, 01:18:00,VALID,919.066,VALID,0,VALID,91.6382,VALID,-0.0169808,VALID,18.2418,VALID,359,VALID,0,
2001-10-08, 01:19:00,VALID,919.057,VALID,0,VALID,91.0647,VALID,-0.0169808,VALID,18.2932,VALID,359,VALID,0,
2001-10-08, 01:20:00,VALID,919.049,VALID,0,VALID,89.7651,VALID,0,VALID,18.3809,VALID,357,VALID,0,
2001-10-08, 01:21:00,VALID,919.04,VALID,0,VALID,89.0479,VALID,0,VALID,18.484,VALID,357,VALID,0,
2001-10-08, 01:22:00,VALID,919.022,VALID,0,VALID,90.0347,VALID,0,VALID,18.5649,VALID,312,VALID,0,
2001-10-08, 01:23:00,VALID,919.022,VALID,0,VALID,90.1822,VALID,0.0169808,VALID,18.594,VALID,219,VALID,0,
2001-10-08, 01:24:00,VALID,919.02,VALID,0,VALID,89.7613,VALID,0,VALID,18.5908,VALID,214,VALID,0,
2001-10-08, 01:25:00,VALID,919.023,VALID,0,VALID,90.2242,VALID,0,VALID,18.591,VALID,214,VALID,0,
2001-10-08, 01:26:00,VALID,919.007,VALID,0,VALID,90.4365,VALID,-0.0169808,VALID,18.6007,VALID,214,VALID,0,
2001-10-08, 01:27:00,VALID,919.01,VALID,0,VALID,90.2547,VALID,0,VALID,18.5774,VALID,214,VALID,0,
2001-10-08, 01:28:00,VALID,919.001,VALID,0,VALID,90.1618,VALID,0,VALID,18.5714,VALID,214,VALID,0,
2001-10-08, 01:29:00,VALID,919.004,VALID,0,VALID,90.1669,VALID,0,VALID,18.5712,VALID,214,VALID,0,
2001-10-08, 01:30:00,VALID,919.011,VALID,0,VALID,89.1878,VALID,0,VALID,18.5776,VALID,214,VALID,0,
2001-10-08, 01:31:00,VALID,919.011,VALID,0,VALID,88.6423,VALID,-0.0339617,VALID,18.6136,VALID,214,VALID,0,
2001-10-08, 01:32:00,VALID,919.003,VALID,0,VALID,87.9226,VALID,0,VALID,18.6452,VALID,214,VALID,0,
2001-10-08, 01:33:00,VALID,919.004,VALID,0,VALID,87.7076,VALID,-0.0169808,VALID,18.6909,VALID,212,VALID,0,
2001-10-08, 01:34:00,VALID,919.004,VALID,0,VALID,88.7504,VALID,-0.0339617,VALID,18.71,VALID,191,VALID,0,
2001-10-08, 01:35:00,VALID,919.006,VALID,0,VALID,89.8198,VALID,-0.0339617,VALID,18.72,VALID,152,VALID,0,
2001-10-08, 01:36:00,VALID,919.027,VALID,0,VALID,89.9902,VALID,-0.0339617,VALID,18.6586,VALID,152,VALID,0,
2001-10-08, 01:37:00,VALID,919.037,VALID,0,VALID,90.7214,VALID,0,VALID,18.6228,VALID,152,VALID,0,
2001-10-08, 01:38:00,VALID,919.03,VALID,0,VALID,90.8371,VALID,0,VALID,18.594,VALID,152,VALID,0,
2001-10-08, 01:39:00,VALID,918.992,VALID,0,VALID,90.2254,VALID,0,VALID,18.5257,VALID,152,VALID,0,
2001-10-08, 01:40:00,VALID,918.976,VALID,0,VALID,89.8325,VALID,-0.0169808,VALID,18.4907,VALID,152,VALID,0,
2001-10-08, 01:41:00,VALID,918.953,VALID,0,VALID,90.7862,VALID,0.0169808,VALID,18.4904,VALID,126,VALID,0,
2001-10-08, 01:42:00,VALID,918.911,VALID,0,VALID,91.6827,VALID,0,VALID,18.5063,VALID,123,VALID,0,
2001-10-08, 01:43:00,VALID,918.885,VALID,0,VALID,92.2447,VALID,0,VALID,18.5197,VALID,123,VALID,0,
2001-10-08, 01:44:00,VALID,918.848,VALID,0,VALID,91.9942,VALID,-0.0339617,VALID,18.4877,VALID,123,VALID,0,
2001-10-08, 01:45:00,VALID,918.835,VALID,0,VALID,92.3719,VALID,-0.0169808,VALID,18.4711,VALID,123,VALID,0,
2001-10-08, 01:46:00,VALID,918.822,VALID,0,VALID,92.7572,VALID,0,VALID,18.4521,VALID,123,VALID,0,
2001-10-08, 01:47:00,VALID,918.786,VALID,0,VALID,92.981,VALID,-0.0679233,VALID,18.4321,VALID,123,VALID,0,
2001-10-08, 01:48:00,VALID,918.782,VALID,0,VALID,93.1311,VALID,-0.0339617,VALID,18.397,VALID,109,VALID,0,
2001-10-08, 01:49:00,VALID,918.78,VALID,0,VALID,93.482,VALID,0,VALID,18.3488,VALID,41,VALID,0.342348,
2001-10-08, 01:50:00,VALID,918.769,VALID,0,VALID,93.6486,VALID,0,VALID,18.2773,VALID,39,VALID,0.422852,
2001-10-08, 01:51:00,VALID,918.751,VALID,0,VALID,94.0847,VALID,-0.0339617,VALID,18.2192,VALID,39,VALID,0.30152,
2001-10-08, 01:52:00,VALID,918.74,VALID,0,VALID,93.8228,VALID,-0.0339617,VALID,18.1675,VALID,39,VALID,0.240039,
2001-10-08, 01:53:00,VALID,918.732,VALID,0,VALID,93.393,VALID,0,VALID,18.1066,VALID,39,VALID,0.337941,
2001-10-08, 01:54:00,VALID,918.726,VALID,0,VALID,93.3396,VALID,0,VALID,18.0967,VALID,39,VALID,0.4081,
2001-10-08, 01:55:00,VALID,918.71,VALID,0,VALID,92.9683,VALID,0,VALID,18.0835,VALID,39,VALID,0.384615,
2001-10-08, 01:56:00,VALID,918.703,VALID,0,VALID,92.0197,VALID,0,VALID,18.0971,VALID,39,VALID,0.287829,
2001-10-08, 01:57:00,VALID,918.682,VALID,0,VALID,91.3699,VALID,-0.0169808,VALID,18.1387,VALID,39,VALID,0.311098,
2001-10-08, 01:58:00,VALID,918.665,VALID,0,VALID,91.2681,VALID,0,VALID,18.1931,VALID,39,VALID,0.242188,
2001-10-08, 01:59:00,VALID,918.678,VALID,0,VALID,90.7798,VALID,-0.0169808,VALID,18.2515,VALID,39,VALID,0.108742,
2001-10-08, 02:00:00,VALID,918.675,VALID,0,VALID,90.3653,VALID,-0.0169808,VALID,18.2934,VALID,39,VALID,0,
2001-10-08, 02:01:00,VALID,918.686,VALID,0,VALID,90.041,VALID,-0.0169808,VALID,18.3677,VALID,44,VALID,0.0809295,
2001-10-08, 02:02:00,VALID,918.691,VALID,0,VALID,89.9317,VALID,-0.0169808,VALID,18.4097,VALID,72,VALID,0.235403,
2001-10-08, 02:03:00,VALID,918.701,VALID,0,VALID,90.0271,VALID,-0.0169808,VALID,18.4616,VALID,124,VALID,0.187901,
2001-10-08, 02:04:00,VALID,918.697,VALID,0,VALID,90.5268,VALID,0,VALID,18.4877,VALID,124,VALID,0.30222,
2001-10-08, 02:05:00,VALID,918.694,VALID,0,VALID,91.0494,VALID,0,VALID,18.4934,VALID,128,VALID,0.499399,
2001-10-08, 02:06:00,VALID,918.683,VALID,0,VALID,91.6585,VALID,0,VALID,18.4674,VALID,144,VALID,0.820117,
2001-10-08, 02:07:00,VALID,918.661,VALID,0,VALID,92.1634,VALID,0.0169808,VALID,18.4455,VALID,146,VALID,0.940245,
2001-10-08, 02:08:00,VALID,918.646,VALID,0,VALID,92.4991,VALID,0,VALID,18.3809,VALID,145,VALID,0.675,
2001-10-08, 02:09:00,VALID,918.636,VALID,0,VALID,92.8615,VALID,-0.0169808,VALID,18.3066,VALID,138,VALID,0.362981,
2001-10-08, 02:10:00,VALID,918.623,VALID,0,VALID,93.2684,VALID,-0.0169808,VALID,18.2582,VALID,136,VALID,0.130962,
2001-10-08, 02:11:00,VALID,918.6,VALID,0,VALID,93.6168,VALID,-0.0169808,VALID,18.1963,VALID,133,VALID,0.23097,
2001-10-08, 02:12:00,VALID,918.594,VALID,0,VALID,93.8609,VALID,0,VALID,18.1613,VALID,124,VALID,0.364104,
2001-10-08, 02:13:00,VALID,918.586,VALID,0,VALID,94.2653,VALID,0,VALID,18.1064,VALID,138,VALID,0.578526,
2001-10-08, 02:14:00,VALID,918.588,VALID,0,VALID,94.6646,VALID,0,VALID,18.0833,VALID,144,VALID,0.866211,
2001-10-08, 02:15:00,VALID,918.604,VALID,0,VALID,94.9151,VALID,-0.0169808,VALID,18.0349,VALID,147,VALID,0.94848,
2001-10-08, 02:16:00,VALID,918.626,VALID,0,VALID,94.9787,VALID,0,VALID,17.9931,VALID,148,VALID,0.969141,
2001-10-08, 02:17:00,VALID,918.627,VALID,0,VALID,95.0219,VALID,-0.0169808,VALID,17.9512,VALID,145,VALID,0.955529,
2001-10-08, 02:18:00,VALID,918.614,VALID,0,VALID,95.0804,VALID,0,VALID,17.9219,VALID,122,VALID,0.607525,
2001-10-08, 02:19:00,VALID,918.607,VALID,0,VALID,95.2394,VALID,0,VALID,17.9129,VALID,96,VALID,0.476362,
2001-10-08, 02:20:00,VALID,918.591,VALID,0,VALID,95.2203,VALID,0,VALID,17.8965,VALID,109,VALID,0.452508,
2001-10-08, 02:21:00,VALID,918.571,VALID,0,VALID,95.1732,VALID,-0.0509425,VALID,17.8903,VALID,125,VALID,0.388822,
2001-10-08, 02:22:00,VALID,918.56,VALID,0,VALID,95.1821,VALID,0,VALID,17.8898,VALID,129,VALID,0.193555,
2001-10-08, 02:23:00,VALID,918.542,VALID,0,VALID,95.3576,VALID,0,VALID,17.9096,VALID,129,VALID,0,
2001-10-08, 02:24:00,VALID,918.513,VALID,0,VALID,95.1974,VALID,0,VALID,17.9262,VALID,139,VALID,0,
2001-10-08, 02:25:00,VALID,918.494,VALID,0,VALID,95.0079,VALID,-0.0339617,VALID,17.9129,VALID,161,VALID,0,
2001-10-08, 02:26:00,VALID,918.465,VALID,0,VALID,94.821,VALID,0,VALID,17.9165,VALID,160,VALID,0,
2001-10-08, 02:27:00,VALID,918.435,VALID,0,VALID,94.6379,VALID,0,VALID,17.8999,VALID,160,VALID,0,
2001-10-08, 02:28:00,VALID,918.402,VALID,0,VALID,94.76,VALID,-0.0169808,VALID,17.9027,VALID,159,VALID,0,
2001-10-08, 02:29:00,VALID,918.382,VALID,0,VALID,94.8719,VALID,-0.0169808,VALID,17.9387,VALID,159,VALID,0,
2001-10-08, 02:30:00,VALID,918.358,VALID,0,VALID,94.8935,VALID,-0.0169808,VALID,17.9617,VALID,159,VALID,0,
2001-10-08, 02:31:00,VALID,918.343,VALID,0,VALID,94.7841,VALID,0,VALID,17.9546,VALID,159,VALID,0,
2001-10-08, 02:32:00,VALID,918.331,VALID,0,VALID,94.6379,VALID,-0.0339617,VALID,17.9417,VALID,159,VALID,0,
2001-10-08, 02:33:00,VALID,918.307,VALID,0,VALID,94.6214,VALID,0,VALID,17.9548,VALID,159,VALID,0,
2001-10-08, 02:34:00,VALID,918.303,VALID,0,VALID,94.5794,VALID,-0.0169808,VALID,17.9581,VALID,159,VALID,0,
2001-10-08, 02:35:00,VALID,918.274,VALID,0,VALID,94.54,VALID,0,VALID,17.9712,VALID,159,VALID,0,
2001-10-08, 02:36:00,VALID,918.255,VALID,0,VALID,94.6188,VALID,0,VALID,17.9811,VALID,159,VALID,0,
2001-10-08, 02:37:00,VALID,918.224,VALID,0,VALID,94.3759,VALID,0,VALID,17.9871,VALID,188,VALID,0,
2001-10-08, 02:38:00,VALID,918.216,VALID,0,VALID,93.3243,VALID,0,VALID,18.0358,VALID,234,VALID,0,
2001-10-08, 02:39:00,VALID,918.208,VALID,0,VALID,91.7539,VALID,0,VALID,18.1968,VALID,236,VALID,0,
2001-10-08, 02:40:00,VALID,918.191,VALID,0,VALID,90.4352,VALID,0,VALID,18.3682,VALID,236,VALID,0,
2001-10-08, 02:41:00,VALID,918.19,VALID,0,VALID,89.699,VALID,0,VALID,18.481,VALID,237,VALID,0,
2001-10-08, 02:42:00,VALID,918.182,VALID,0,VALID,89.1319,VALID,-0.0169808,VALID,18.5557,VALID,237,VALID,0,
2001-10-08, 02:43:00,VALID,918.161,VALID,0,VALID,88.683,VALID,0,VALID,18.6106,VALID,237,VALID,0,
2001-10-08, 02:44:00,VALID,918.168,VALID,0,VALID,88.8902,VALID,-0.0169808,VALID,18.6852,VALID,237,VALID,0,
2001-10-08, 02:45:00,VALID,918.185,VALID,0,VALID,88.0345,VALID,-0.0339617,VALID,18.7071,VALID,237,VALID,0,
2001-10-08, 02:46:00,VALID,918.188,VALID,0,VALID,86.843,VALID,0,VALID,18.7428,VALID,237,VALID,0,
2001-10-08, 02:47:00,VALID,918.179,VALID,0,VALID,86.7412,VALID,0,VALID,18.8044,VALID,237,VALID,0,
2001-10-08, 02:48:00,VALID,918.175,VALID,0,VALID,87.8666,VALID,-0.0169808,VALID,18.8496,VALID,237,VALID,0,
2001-10-08, 02:49:00,VALID,918.164,VALID,0,VALID,87.0897,VALID,0,VALID,18.8658,VALID,237,VALID,0,
2001-10-08, 02:50:00,VALID,918.131,VALID,0,VALID,86.1487,VALID,-0.0339617,VALID,18.8916,VALID,237,VALID,0,
2001-10-08, 02:51:00,VALID,918.116,VALID,0,VALID,86.4195,VALID,-0.0169808,VALID,18.956,VALID,237,VALID,0,
2001-10-08, 02:52:00,VALID,918.101,VALID,0,VALID,86.8519,VALID,-0.0169808,VALID,19.0111,VALID,237,VALID,0,
2001-10-08, 02:53:00,VALID,918.053,VALID,0,VALID,86.6827,VALID,0,VALID,19.0012,VALID,237,VALID,0,
2001-10-08, 02:54:00,VALID,918.018,VALID,0,VALID,86.7133,VALID,-0.0169808,VALID,19.0044,VALID,237,VALID,0,
2001-10-08, 02:55:00,VALID,918.001,VALID,0,VALID,86.7298,VALID,0,VALID,18.9848,VALID,237,VALID,0,
2001-10-08, 02:56:00,VALID,917.987,VALID,0,VALID,87.8157,VALID,0,VALID,18.923,VALID,322,VALID,0,
2001-10-08, 02:57:00,VALID,917.974,VALID,0,VALID,89.5121,VALID,0,VALID,18.8651,VALID,36,VALID,0,
2001-10-08, 02:58:00,VALID,917.957,VALID,0,VALID,89.9495,VALID,0,VALID,18.7873,VALID,36,VALID,0,
2001-10-08, 02:59:00,VALID,917.953,VALID,0,VALID,89.301,VALID,0,VALID,18.7163,VALID,36,VALID,0,
2001-10-08, 03:00:00,VALID,917.94,VALID,0,VALID,88.6753,VALID,0,VALID,18.681,VALID,36,VALID,0,
2001-10-08, 03:01:00,VALID,917.921,VALID,0,VALID,88.8101,VALID,-0.0169808,VALID,18.6653,VALID,36,VALID,0,
2001-10-08, 03:02:00,VALID,917.925,VALID,0,VALID,89.2603,VALID,0,VALID,18.6323,VALID,36,VALID,0,
2001-10-08, 03:03:00,VALID,917.943,VALID,0,VALID,88.388,VALID,0,VALID,18.5645,VALID,36,VALID,0,
2001-10-08, 03:04:00,VALID,917.965,VALID,0,VALID,87.8653,VALID,0,VALID,18.552,VALID,36,VALID,0,
2001-10-08, 03:05:00,VALID,917.961,VALID,0,VALID,89.9241,VALID,0,VALID,18.5781,VALID,36,VALID,0,
2001-10-08, 03:06:00,VALID,917.972,VALID,0,VALID,90.8053,VALID,0,VALID,18.5105,VALID,31,VALID,0.663446,
2001-10-08, 03:07:00,VALID,917.992,VALID,0,VALID,91.408,VALID,0,VALID,18.3679,VALID,37,VALID,1.01202,
2001-10-08, 03:08:00,VALID,917.989,VALID,0,VALID,91.1295,VALID,0.0339617,VALID,18.2711,VALID,47,VALID,0.828536,
2001-10-08, 03:09:00,VALID,918.005,VALID,0,VALID,90.1199,VALID,0.0169808,VALID,18.242,VALID,65,VALID,0.44992,
2001-10-08, 03:10:00,VALID,918.013,VALID,0,VALID,90.9363,VALID,0,VALID,18.3031,VALID,130,VALID,0.548828,
2001-10-08, 03:11:00,VALID,918.025,VALID,0,VALID,91.4271,VALID,0.0169808,VALID,18.3197,VALID,117,VALID,0.960726,
2001-10-08, 03:12:00,VALID,918.024,VALID,0,VALID,91.9306,VALID,0,VALID,18.2681,VALID,93,VALID,0.793359,
2001-10-08, 03:13:00,VALID,918.038,VALID,0,VALID,92.3744,VALID,0,VALID,18.2388,VALID,90,VALID,0.530248,
2001-10-08, 03:14:00,VALID,918.059,VALID,0,VALID,92.8437,VALID,0.0339617,VALID,18.2063,VALID,106,VALID,0.865543,
2001-10-08, 03:15:00,VALID,918.065,VALID,0,VALID,93.1221,VALID,0.0339617,VALID,18.1901,VALID,121,VALID,0.859976,
2001-10-08, 03:16:00,VALID,918.085,VALID,0,VALID,93.4019,VALID,0.0169808,VALID,18.1647,VALID,126,VALID,0.677015,
2001-10-08, 03:17:00,VALID,918.096,VALID,0,VALID,93.5901,VALID,0,VALID,18.1419,VALID,128,VALID,0.688502,
2001-10-08, 03:18:00,VALID,918.094,VALID,0,VALID,93.7147,VALID,0,VALID,18.1094,VALID,124,VALID,0.854297,
2001-10-08, 03:19:00,VALID,918.093,VALID,0,VALID,93.8177,VALID,0,VALID,18.0812,VALID,137,VALID,0.683699,
2001-10-08, 03:20:00,VALID,918.081,VALID,0,VALID,93.9957,VALID,0,VALID,18.0351,VALID,148,VALID,0.796094,
2001-10-08, 03:21:00,VALID,918.077,VALID,0,VALID,94.175,VALID,0.0169808,VALID,18.0063,VALID,144,VALID,0.871394,
2001-10-08, 03:22:00,VALID,918.072,VALID,0,VALID,94.362,VALID,0.0169808,VALID,17.9744,VALID,114,VALID,0.870888,
2001-10-08, 03:23:00,VALID,918.069,VALID,0,VALID,94.5171,VALID,0,VALID,17.9322,VALID,96,VALID,0.535056,
2001-10-08, 03:24:00,VALID,918.076,VALID,0,VALID,94.7638,VALID,0,VALID,17.9133,VALID,153,VALID,0.309827,
2001-10-08, 03:25:00,VALID,918.088,VALID,0,VALID,94.9304,VALID,0,VALID,17.887,VALID,149,VALID,0.354167,
2001-10-08, 03:26:00,VALID,918.113,VALID,0,VALID,95.0842,VALID,0,VALID,17.8709,VALID,142,VALID,0.521484,
2001-10-08, 03:27:00,VALID,918.12,VALID,0,VALID,95.2813,VALID,0,VALID,17.861,VALID,136,VALID,0.404139,
2001-10-08, 03:28:00,VALID,918.128,VALID,0,VALID,95.4492,VALID,-0.0169808,VALID,17.8321,VALID,123,VALID,0.290234,
2001-10-08, 03:29:00,VALID,918.118,VALID,0,VALID,95.6285,VALID,0,VALID,17.8294,VALID,118,VALID,0.417869,
2001-10-08, 03:30:00,VALID,918.138,VALID,0,VALID,95.7429,VALID,-0.0169808,VALID,17.8162,VALID,121,VALID,0.0489309,
2001-10-08, 03:31:00,VALID,918.148,VALID,0,VALID,95.7811,VALID,0,VALID,17.8031,VALID,120,VALID,0.16246,
2001-10-08, 03:32:00,VALID,918.143,VALID,0,VALID,95.7798,VALID,0.0169808,VALID,17.7936,VALID,130,VALID,0.533923,
2001-10-08, 03:33:00,VALID,918.162,VALID,0,VALID,95.8332,VALID,0,VALID,17.7837,VALID,148,VALID,0.887019,
2001-10-08, 03:34:00,VALID,918.174,VALID,0,VALID,95.617,VALID,0.0169808,VALID,17.7772,VALID,129,VALID,0.850586,
2001-10-08, 03:35:00,VALID,918.181,VALID,0,VALID,95.5484,VALID,0,VALID,17.7839,VALID,117,VALID,0.623733,
2001-10-08, 03:36:00,VALID,918.191,VALID,0,VALID,95.4708,VALID,0,VALID,17.7936,VALID,123,VALID,0.485938,
2001-10-08, 03:37:00,VALID,918.204,VALID,0,VALID,95.4365,VALID,0.0169808,VALID,17.78,VALID,147,VALID,0.636819,
2001-10-08, 03:38:00,VALID,918.219,VALID,0,VALID,95.2851,VALID,0.0169808,VALID,17.7839,VALID,102,VALID,0.593544,
2001-10-08, 03:39:00,VALID,918.227,VALID,0,VALID,95.1402,VALID,0.0169808,VALID,17.7932,VALID,95,VALID,0.836138,
2001-10-08, 03:40:00,VALID,918.245,VALID,0,VALID,94.9685,VALID,0.0169808,VALID,17.7996,VALID,140,VALID,0.453742,
2001-10-08, 03:41:00,VALID,918.252,VALID,0,VALID,94.8731,VALID,0.0169808,VALID,17.8091,VALID,132,VALID,0.551683,
2001-10-08, 03:42:00,VALID,918.261,VALID,0,VALID,94.9469,VALID,0,VALID,17.8063,VALID,53,VALID,0.48088,
2001-10-08, 03:43:00,VALID,918.243,VALID,0,VALID,94.9405,VALID,0,VALID,17.7994,VALID,59,VALID,0.423986,